Weather History for KBNA - November, 2012

Change the Weather History Date:

Tuesday, November 13, 2012

  Actual Average Record
Temperature  
Mean Temperature 40 °F 51 °F  
Max Temperature 51 °F 61 °F 79 °F (1985)
Min Temperature 28 °F 40 °F 18 °F (1911)
Degree Days  
Heating Degree Days 25    
Month to date heating degree days 194  
Since 1 July heating degree days 434  
Cooling Degree Days 0    
Month to date cooling degree days 0  
Year to date cooling degree days 1975  
Moisture  
Dew Point 26 °F    
Average Humidity 62    
Maximum Humidity 92    
Minimum Humidity 32    
Precipitation  
Precipitation 0.00 in 0.13 in 1.24 in (1889)
Month to date precipitation 0.98 1.61  
Year to date precipitation 40.71 40.31  
Snow  
Snow 0.00 in 0.00 in T in (1975)
Month to date snowfall 0.0 0.0  
Since 1 July snowfall 0.0 T  
Since 1 September snowfall 0.0 T  
Snow Depth 0.00 in    
Sea Level Pressure  
Sea Level Pressure 30.47 in    
Wind  
Wind Speed 5 mph (NNE)    
Max Wind Speed 16 mph    
Max Gust Speed 21 mph    
Visibility 10 miles    
Events Fog    
T = Trace of Precipitation, MM = Missing Value Source: NWS Daily Summary

Daily Weather History Graph

Daily Weather History Graph

Search for Another Location

Airport or City:

Trip Planner

Search our weather history database for the weather conditions in past years. The results will help you decide how hot, cold, wet, or windy it might be!

Date:

Astronomy

Nov. 13, 2012 Rise Set
Actual Time 6:21 AM CST 4:39 PM CST
Civil Twilight 5:54 AM CST 5:07 PM CST
Nautical Twilight 5:23 AM CST 5:38 PM CST
Astronomical Twilight 4:53 AM CST 6:08 PM CST
Moon 5:59 AM CST (11/13) 4:33 PM CST (11/13)
Length of Visible Light 11h 12m
Length of Day
10h 17m
Waning Crescent, 0% of the Moon is Illuminated
Nov 13
Waning Crescent
Nov 13
New
Nov 20
First Quarter
Nov 28
Full
Dec 6
Last Quarter

Hourly Weather History & Observations

Time (CST) Temp. Windchill Dew Point Humidity Pressure Visibility Wind Dir Wind Speed Gust Speed Precip Events Conditions
12:53 AM 30.9 °F - 28.9 °F 92% 30.47 in 9.0 mi Calm Calm - N/A   Clear
1:53 AM 30.9 °F - 28.9 °F 92% 30.47 in 10.0 mi Calm Calm - N/A   Clear
2:53 AM 30.0 °F - 27.0 °F 88% 30.47 in 9.0 mi Calm Calm - N/A   Clear
3:53 AM 28.9 °F - 26.1 °F 89% 30.48 in 10.0 mi Calm Calm - N/A   Clear
4:53 AM 28.9 °F - 26.1 °F 89% 30.48 in 10.0 mi Calm Calm - N/A   Clear
5:53 AM 28.0 °F - 25.0 °F 88% 30.50 in 7.0 mi Calm Calm - N/A   Clear
6:53 AM 28.9 °F - 27.0 °F 92% 30.51 in 9.0 mi Calm Calm - N/A Fog Patches of Fog
7:53 AM 35.1 °F 32.2 °F 30.0 °F 82% 30.53 in 10.0 mi North 3.5 mph - N/A Fog Patches of Fog
8:53 AM 39.9 °F - 30.0 °F 68% 30.53 in 10.0 mi Calm Calm - N/A   Clear
9:53 AM 44.1 °F 39.0 °F 28.0 °F 53% 30.53 in 10.0 mi NE 9.2 mph - N/A   Clear
10:53 AM 46.9 °F - 25.0 °F 42% 30.51 in 10.0 mi NE 9.2 mph - N/A   Clear
11:53 AM 48.9 °F - 25.0 °F 39% 30.47 in 10.0 mi NE 6.9 mph 17.3 mph N/A   Clear
12:53 PM 50.0 °F - 21.9 °F 33% 30.45 in 10.0 mi NE 11.5 mph - N/A   Clear
1:53 PM 50.0 °F - 21.9 °F 33% 30.43 in 10.0 mi NNE 12.7 mph 19.6 mph N/A   Clear
2:53 PM 50.0 °F - 21.9 °F 33% 30.43 in 10.0 mi North 12.7 mph - N/A   Clear
3:53 PM 48.0 °F - 23.0 °F 37% 30.43 in 10.0 mi NNE 8.1 mph - N/A   Clear
4:53 PM 43.0 °F 38.2 °F 24.1 °F 47% 30.43 in 10.0 mi North 8.1 mph - N/A   Clear
5:53 PM 41.0 °F 35.8 °F 24.1 °F 51% 30.43 in 10.0 mi North 8.1 mph - N/A   Clear
6:53 PM 39.9 °F 34.5 °F 25.0 °F 55% 30.45 in 10.0 mi NNE 8.1 mph - N/A   Clear
7:53 PM 37.9 °F 33.5 °F 25.0 °F 60% 30.45 in 10.0 mi NE 5.8 mph - N/A   Clear
8:53 PM 37.9 °F 32.7 °F 26.1 °F 62% 30.45 in 10.0 mi NNE 6.9 mph - N/A   Clear
9:53 PM 37.9 °F 32.7 °F 26.1 °F 62% 30.45 in 10.0 mi NNE 6.9 mph - N/A   Clear
10:53 PM 37.0 °F 34.5 °F 27.0 °F 67% 30.43 in 10.0 mi NNE 3.5 mph - N/A   Clear
11:53 PM 36.0 °F 30.3 °F 26.1 °F 67% 30.44 in 10.0 mi North 6.9 mph - N/A   Clear